• In Russia
  • List of Countries
  • For 7 days
  • Water Temperature
  • Satellite Maps
  • Weather Map
  • Weather Widgets
  • user-avatar
    Login

    Hourly Weather Igls

    Today, 11 December, Monday

    Time Temperature Precipitation Wind Pressure Humidity
    00:00 -3°C° 0 mm 4 mps 668 mmHg 84%
    01:00 -1°C° 0 mm 3 mps 668 mmHg 85%
    02:00 -1°C° 0 mm 3 mps 668 mmHg 85%
    03:00 -2°C° 0 mm 4 mps 667 mmHg 85%
    04:00 -1°C° 0 mm 4 mps 667 mmHg 86%
    05:00 -1°C° 0 mm 4 mps 667 mmHg 86%
    06:00 0°C° 0 mm 4 mps 666 mmHg 86%
    07:00 +1°C° 0 mm 4 mps 667 mmHg 85%
    08:00 +3°C° 0.1 mm 4 mps 666 mmHg 85%
    09:00 +3°C° 0.1 mm 4 mps 666 mmHg 85%
    10:00 +3°C° 0.1 mm 5 mps 666 mmHg 85%
    11:00 +3°C° 0.1 mm 5 mps 665 mmHg 86%
    12:00 +5°C° 0.1 mm 5 mps 665 mmHg 87%
    13:00 +6°C° 0 mm 4 mps 664 mmHg 88%
    14:00 +6°C° 0.1 mm 4 mps 664 mmHg 89%
    15:00 +5°C° 0.1 mm 5 mps 664 mmHg 89%
    16:00 +5°C° 0.1 mm 5 mps 664 mmHg 89%
    17:00 +5°C° 0.2 mm 5 mps 664 mmHg 90%
    18:00 +4°C° 0.2 mm 4 mps 664 mmHg 90%
    19:00 +4°C° 0.2 mm 4 mps 665 mmHg 91%
    20:00 +4°C° 0.8 mm 4 mps 665 mmHg 92%
    21:00 +4°C° 0.8 mm 3 mps 666 mmHg 93%
    22:00 +3°C° 0.8 mm 3 mps 666 mmHg 94%
    23:00 +3°C° 2 mm 3 mps 667 mmHg 95%

    Tomorrow, 12 December, Tuesday

    Time Temperature Precipitation Wind Pressure Humidity
    00:00 +3°C° 2 mm 3 mps 667 mmHg 96%
    01:00 +3°C° 2 mm 3 mps 668 mmHg 96%
    02:00 +4°C° 1.4 mm 2 mps 668 mmHg 96%
    03:00 +4°C° 1.4 mm 2 mps 669 mmHg 96%
    04:00 +4°C° 1.4 mm 2 mps 670 mmHg 96%
    05:00 +3°C° 0.8 mm 2 mps 671 mmHg 96%
    06:00 +3°C° 0.8 mm 2 mps 672 mmHg 96%
    07:00 +3°C° 0.8 mm 2 mps 673 mmHg 96%
    08:00 +3°C° 0.7 mm 2 mps 674 mmHg 96%
    09:00 +2°C° 0.7 mm 2 mps 675 mmHg 96%
    10:00 +2°C° 0.7 mm 2 mps 676 mmHg 95%
    11:00 +2°C° 0.5 mm 2 mps 677 mmHg 95%
    12:00 +2°C° 0.5 mm 1 mps 677 mmHg 94%
    13:00 +2°C° 0.5 mm 1 mps 678 mmHg 93%
    14:00 +1°C° 0.4 mm 1 mps 678 mmHg 94%
    15:00 +1°C° 0.4 mm 1 mps 679 mmHg 95%
    16:00 0°C° 0.4 mm 1 mps 679 mmHg 95%
    17:00 0°C° 0.3 mm 1 mps 680 mmHg 95%
    18:00 -3°C° 0.3 mm 2 mps 681 mmHg 95%
    19:00 -3°C° 0.3 mm 2 mps 681 mmHg 95%
    20:00 -4°C° 0.2 mm 2 mps 682 mmHg 95%
    21:00 -4°C° 0.2 mm 2 mps 682 mmHg 94%
    22:00 -4°C° 0.2 mm 2 mps 683 mmHg 94%
    23:00 -4°C° 0.2 mm 2 mps 683 mmHg 93%

    Day after tomorrow, 13 December, Wednesday

    Time Temperature Precipitation Wind Pressure Humidity
    00:00 -4°C° 0.2 mm 2 mps 683 mmHg 93%
    01:00 -5°C° 0.2 mm 2 mps 684 mmHg 92%
    02:00 -6°C° 0 mm 2 mps 684 mmHg 92%
    03:00 -7°C° 0 mm 2 mps 684 mmHg 91%
    04:00 -7°C° 0 mm 1 mps 683 mmHg 91%
    05:00 -7°C° 0 mm 1 mps 684 mmHg 89%
    06:00 -9°C° 0 mm 2 mps 684 mmHg 86%
    07:00 -9°C° 0 mm 2 mps 684 mmHg 84%
    08:00 -7°C° 0 mm 1 mps 684 mmHg 81%
    09:00 -4°C° 0 mm 1 mps 684 mmHg 78%
    10:00 -3°C° 0 mm 1 mps 684 mmHg 74%
    11:00 -3°C° 0 mm 2 mps 684 mmHg 73%
    12:00 -1°C° 0 mm 2 mps 683 mmHg 72%
    13:00 +1°C° 0 mm 2 mps 682 mmHg 71%
    14:00 +1°C° 0 mm 2 mps 682 mmHg 75%
    15:00 -1°C° 0 mm 2 mps 681 mmHg 78%
    16:00 -2°C° 0 mm 2 mps 681 mmHg 81%
    17:00 -2°C° 0 mm 3 mps 680 mmHg 81%
    18:00 -4°C° 0 mm 3 mps 680 mmHg 81%
    19:00 -4°C° 0 mm 3 mps 680 mmHg 80%
    20:00 -4°C° 0 mm 3 mps 680 mmHg 79%
    21:00 -4°C° 0 mm 3 mps 679 mmHg 77%
    22:00 -4°C° 0 mm 3 mps 679 mmHg 76%
    23:00 -2°C° 0.1 mm 3 mps 679 mmHg 77%

    14 December, Thursday

    Time Temperature Precipitation Wind Pressure Humidity
    00:00 -2°C° 0.1 mm 3 mps 678 mmHg 78%
    01:00 -2°C° 0.1 mm 4 mps 678 mmHg 79%
    02:00 -1°C° 0.1 mm 3 mps 678 mmHg 78%
    03:00 -1°C° 0.1 mm 3 mps 677 mmHg 77%
    04:00 -1°C° 0.1 mm 3 mps 677 mmHg 77%
    05:00 -1°C° 0 mm 3 mps 677 mmHg 76%
    06:00 -1°C° 0 mm 3 mps 677 mmHg 75%
    07:00 -2°C° 0 mm 2 mps 677 mmHg 75%
    08:00 -1°C° 0.1 mm 2 mps 677 mmHg 77%
    09:00 +1°C° 0.1 mm 2 mps 677 mmHg 80%
    10:00 +2°C° 0.1 mm 2 mps 677 mmHg 82%
    11:00 +2°C° 0.3 mm 2 mps 677 mmHg 84%
    12:00 +4°C° 0.3 mm 1 mps 677 mmHg 86%
    13:00 +4°C° 0.3 mm 1 mps 676 mmHg 88%
    14:00 +3°C° 0.1 mm 1 mps 675 mmHg 89%
    15:00 +3°C° 0.1 mm 1 mps 675 mmHg 89%
    16:00 +1°C° 0.1 mm 2 mps 674 mmHg 90%
    17:00 +1°C° 0.2 mm 2 mps 674 mmHg 90%
    18:00 +1°C° 0.2 mm 2 mps 673 mmHg 89%
    19:00 -1°C° 0.2 mm 2 mps 673 mmHg 89%
    20:00 -1°C° 0.1 mm 2 mps 672 mmHg 87%
    21:00 -1°C° 0.1 mm 3 mps 672 mmHg 86%
    22:00 -1°C° 0.1 mm 3 mps 672 mmHg 84%
    23:00 -1°C° 0.6 mm 3 mps 672 mmHg 87%

    15 December, Friday

    Time Temperature Precipitation Wind Pressure Humidity
    00:00 -1°C° 0.6 mm 3 mps 672 mmHg 89%
    01:00 -1°C° 0.6 mm 2 mps 672 mmHg 92%
    02:00 -1°C° 1.1 mm 2 mps 672 mmHg 93%
    03:00 -1°C° 1.1 mm 2 mps 672 mmHg 94%
    04:00 +1°C° 1.1 mm 1 mps 673 mmHg 95%
    05:00 +1°C° 0.4 mm 1 mps 672 mmHg 95%
    06:00 +1°C° 0.4 mm 1 mps 672 mmHg 95%
    07:00 0°C° 0.4 mm 1 mps 672 mmHg 95%
    08:00 +1°C° 0.3 mm 1 mps 672 mmHg 94%
    09:00 +1°C° 0.3 mm 1 mps 672 mmHg 93%
    10:00 +1°C° 0.3 mm 1 mps 672 mmHg 92%
    11:00 +2°C° 0.4 mm 1 mps 671 mmHg 92%
    12:00 +2°C° 0.4 mm 1 mps 671 mmHg 92%
    13:00 +3°C° 0.4 mm 1 mps 670 mmHg 91%
    14:00 +2°C° 0.6 mm 1 mps 670 mmHg 93%
    15:00 +2°C° 0.6 mm 1 mps 670 mmHg 94%
    16:00 -1°C° 0.6 mm 2 mps 669 mmHg 96%
    17:00 -1°C° 0.5 mm 2 mps 670 mmHg 96%
    18:00 -2°C° 0.5 mm 2 mps 670 mmHg 95%
    19:00 -2°C° 0.5 mm 2 mps 670 mmHg 95%
    20:00 -3°C° 0.2 mm 2 mps 670 mmHg 94%
    21:00 -3°C° 0.2 mm 2 mps 671 mmHg 92%
    22:00 -4°C° 0.2 mm 2 mps 671 mmHg 91%
    23:00 -4°C° 0.1 mm 2 mps 671 mmHg 90%

    16 December, Saturday

    Time Temperature Precipitation Wind Pressure Humidity
    00:00 -4°C° 0.1 mm 2 mps 671 mmHg 89%
    01:00 -4°C° 0.1 mm 2 mps 672 mmHg 89%
    02:00 -5°C° 0.1 mm 2 mps 672 mmHg 89%
    03:00 -5°C° 0.1 mm 2 mps 672 mmHg 89%
    04:00 -5°C° 0.1 mm 2 mps 672 mmHg 89%
    05:00 -5°C° 0.1 mm 2 mps 672 mmHg 89%
    06:00 -6°C° 0.1 mm 2 mps 673 mmHg 90%
    07:00 -6°C° 0.1 mm 2 mps 673 mmHg 90%
    08:00 -5°C° 0.1 mm 2 mps 674 mmHg 90%
    09:00 -4°C° 0.1 mm 2 mps 674 mmHg 89%
    10:00 -4°C° 0.1 mm 2 mps 675 mmHg 88%
    11:00 -3°C° 0.3 mm 2 mps 675 mmHg 88%
    12:00 -3°C° 0.3 mm 2 mps 676 mmHg 87%
    13:00 -2°C° 0.3 mm 2 mps 676 mmHg 86%
    14:00 -3°C° 0.4 mm 2 mps 677 mmHg 89%
    15:00 -3°C° 0.4 mm 2 mps 677 mmHg 91%
    16:00 -4°C° 0.4 mm 2 mps 677 mmHg 93%
    17:00 -4°C° 0.3 mm 2 mps 678 mmHg 93%
    18:00 -4°C° 0.3 mm 2 mps 679 mmHg 94%
    19:00 -5°C° 0.3 mm 2 mps 679 mmHg 94%
    20:00 -5°C° 0.1 mm 2 mps 680 mmHg 94%
    21:00 -6°C° 0.1 mm 2 mps 680 mmHg 93%
    22:00 -7°C° 0.1 mm 2 mps 680 mmHg 93%
    23:00 -7°C° 0 mm 2 mps 680 mmHg 91%
    Show more